This demonstration page uses our WeatherBlox Daily Observations layout. Learn more.

Left ArrowRight Arrow

Hourly Observations for September 1, 2018

Temp ( °F °C ) Dew Point ( °F °C ) Humidity (%) Winds ( mph kmh ) Pressure ( in mb ) Visibility ( mi km ) Precip ( " mm )
12:53 am 00:53 Clear 83 28.3 57 13.9 41 41 SSE 14 22 29.76 1008 10 16 0.00 0.00
1:53 am 01:53 Clear 82 27.8 58 14.4 44 44 SSE 16 26 29.77 1008 10 16 0.00 0.00
2:53 am 02:53 Clear 80 26.7 58 14.4 47 47 SSE 13 20 29.76 1008 10 16 0.00 0.00
3:53 am 03:53 Clear 79 26.1 58 14.4 49 49 SSE 12 19 29.76 1008 10 16 0.00 0.00
4:53 am 04:53 Clear 77 25 58 14.4 52 52 SE 12 19 29.76 1008 10 16 0.00 0.00
5:53 am 05:53 Clear 76 24.4 58 14.4 54 54 SE 9 15 29.77 1008 10 16 0.00 0.00
6:53 am 06:53 Clear 75 23.9 59 15 58 58 SE 14 22 29.76 1008 10 16 0.00 0.00
7:53 am 07:53 Sunny 74 23.3 60 15.6 62 62 SE 12 19 29.79 1009 10 16 0.00 0.00
8:53 am 08:53 Sunny 78 25.6 62 16.7 58 58 SE 15 24 29.80 1009 10 16 0.00 0.00
9:53 am 09:53 Sunny 81 27.2 62 16.7 53 53 SE 17 28 29.80 1009 10 16 0.00 0.00
10:53 am 10:53 Sunny 85 29.4 62 16.7 46 46 SSE 15 24 29.79 1009 10 16 0.00 0.00
11:53 am 11:53 Sunny 89 31.7 61 16.1 39 39 SSE 13 20 29.78 1008 10 16 0.00 0.00
12:53 pm 12:53 Mostly Sunny 92 33.3 61 16.1 36 36 S 7 11 29.76 1008 10 16 0.00 0.00
1:53 pm 13:53 Mostly Sunny 94 34.4 60 15.6 32 32 E 10 17 29.73 1007 10 16 0.00 0.00
2:53 pm 14:53 Sunny 98 36.7 59 15 27 27 E 9 15 29.71 1006 10 16 0.00 0.00
3:53 pm 15:53 Partly Cloudy 97 36.1 57 13.9 26 26 E 9 15 29.67 1005 10 16 0.00 0.00
4:53 pm 16:53 Mostly Sunny 96 35.6 57 13.9 27 27 S 8 13 29.66 1004 10 16 0.00 0.00
5:50 pm 17:50 Hazy 86 30 61 16 43 43 NNW 36 57 29.62 1003 2 3 0.00 0.00
5:53 pm 17:53 Mostly Cloudy with Thunderstorms 85 29.4 60 15.6 43 43 NNW 38 61 29.70 1006 2 2 0.00 0.00
5:56 pm 17:56 Mostly Cloudy with Thunderstorms 84 28.9 61 16.1 46 46 NNW 33 54 29.68 1005 3 4 0.00 0.00
6:04 pm 18:04 Mostly Cloudy with Thunderstorms 81 27.2 61 16.1 51 51 N 32 52 29.68 1005 6 10 0.00 0.00

Powered by AerisWeather